Simultaneous Nadir Overpasses (SNOs) Predictions

Prediction of SNOs between AQUA and GOES-15 Satellite Orbit:

Table of predicted SNOs for the next 14.0 days since TLE Epoch: 10/3/2014
Index Date Time (AQUA) AQUA Lat,Lon GOES-15 Lat,Lon Distance(km) Time Diff (sec)
1 10/05/2014 10:32:02 -0.03,-134.12 0.24,-135.34 138.64 80
2 10/05/2014 22:53:26 -1.05,-139.31 -0.22,-135.34 451.37 80
3 10/07/2014 10:19:49 -0.67,-131.15 0.24,-135.34 476.60 80
4 10/07/2014 22:41:12 -0.40,-136.35 -0.22,-135.35 113.39 80
5 10/09/2014 22:28:57 0.21,-133.37 -0.22,-135.34 224.39 80
6 10/10/2014 10:50:12 0.85,-138.53 0.20,-135.34 362.25 80
7 10/12/2014 10:37:56 0.26,-135.55 0.21,-135.33 24.96 80
8 10/14/2014 10:25:40 -0.37,-132.58 0.20,-135.32 312.01 80
9 10/14/2014 22:47:03 -0.73,-137.76 -0.18,-135.32 278.98 80
10 10/16/2014 22:34:47 -0.05,-134.79 -0.18,-135.30 57.87 80




NCC Satellite Simultaneous Nadir Overpasses (SNOs) Prediction Service
